This demonstration page uses our WeatherBlox Daily Observations layout. Learn more.

Left ArrowRight Arrow

36.17497, -115.13722

Hourly Observations for December 11, 2018

Temp ( °F °C ) Dew Point ( °F °C ) Humidity (%) Winds ( mph kmh ) Pressure ( in mb ) Visibility ( mi km ) Precip ( " mm )
12:53 am 00:53 Clear 51 10.6 29 -1.7 43 43 NNW 9 15 30.16 1021 10 16.0934 0 0
1:53 am 01:53 Clear 52 11.1 29 -1.7 41 41 N 3 6 30.15 1021 10 16.0934 0 0
2:53 am 02:53 Clear 50 10 30 -1.1 46 46 Calm 30.16 1021 10 16.0934 0 0
3:53 am 03:53 Clear 50 10 30 -1.1 46 46 NW 5 7 30.14 1021 10 16.0934 0 0
4:53 am 04:53 Mostly Cloudy 49 9.4 32 0 52 52 Calm 30.15 1021 10 16.0934 0 0
5:53 am 05:53 Clear 48 8.9 32 0 54 54 NNW 3 6 30.16 1022 10 16.0934 0 0
6:53 am 06:53 Sunny 50 10 29 -1.7 44 44 N 9 15 30.15 1021 10 16.0934 0 0
7:53 am 07:53 Sunny 50 10 28 -2.2 43 43 NW 3 6 30.18 1022 10 16.0934 0 0
8:53 am 08:53 Sunny 53 11.7 28 -2.2 38 38 NNW 12 19 30.2 1023 10 16.0934 0 0
9:53 am 09:53 Sunny 56 13.3 30 -1.1 37 37 WSW 3 6 30.21 1023 10 16.0934 0 0
10:53 am 10:53 Sunny 60 15.6 28 -2.2 30 30 NNE 13 20 30.18 1022 10 16.0934 0 0
11:53 am 11:53 Sunny 62 16.7 27 -2.8 26 26 NE 3 6 30.14 1021 10 16.0934 0 0
12:53 pm 12:53 Sunny 61 16.1 27 -2.8 27 27 SE 3 6 30.11 1020 10 16.0934 0 0
1:53 pm 13:53 Sunny 63 17.2 27 -2.8 26 26 SSE 6 9 30.09 1019 10 16.0934 0 0
2:53 pm 14:53 Sunny 63 17.2 27 -2.8 26 26 SSE 3 6 30.09 1019 10 16.0934 0 0
3:53 pm 15:53 Sunny 63 17.2 27 -2.8 26 26 S 5 7 30.09 1019 10 16.0934 0 0
4:53 pm 16:53 Clear 61 16.1 28 -2.2 29 29 WSW 3 6 30.1 1019 10 16.0934 0 0
5:53 pm 17:53 Clear 58 14.4 29 -1.7 33 33 Calm 30.11 1020 10 16.0934 0 0
6:53 pm 18:53 Clear 54 12.2 30 -1.1 40 40 NW 5 7 30.12 1020 10 16.0934 0 0
7:53 pm 19:53 Clear 51 10.6 31 -0.6 46 46 NW 6 9 30.12 1020 10 16.0934 0 0
8:53 pm 20:53 Clear 49 9.4 31 -0.6 50 50 WNW 6 9 30.12 1020 10 16.0934 0 0
9:53 pm 21:53 Clear 49 9.4 30 -1.1 48 48 WNW 7 11 30.12 1020 10 16.0934 0 0
10:53 pm 22:53 Clear 48 8.9 30 -1.1 50 50 NW 7 11 30.11 1020 10 16.0934 0 0
11:53 pm 23:53 Clear 46 7.8 30 -1.1 54 54 WNW 6 9 30.11 1020 10 16.0934 0 0

Powered by AerisWeather